This demonstration page uses our WeatherBlox Daily Observations layout. Learn more.

Hourly Observations for September 16, 2018

Temp ( °F °C ) Dew Point ( °F °C ) Humidity (%) Winds ( mph kmh ) Pressure ( in mb ) Visibility ( mi km ) Precip ( " mm )
12:15 am 00:15 Clear 67 19.5 64 18 91 91 SSE 6 9 30 1016 10 16.09344 0 0
12:35 am 00:35 Clear 67 19.5 64 18 91 91 SSE 6 9 30 1016 10 16.09344 0 0
12:55 am 00:55 Clear 67 19.3 65 18.1 93 93 S 5 7 30 1016 10 16.09344 0 0
1:15 am 01:15 Clear 65 18.6 64 17.7 95 95 SSE 6 9 30 1016 10 16.09344 0 0
1:35 am 01:35 Clear 65 18.6 64 17.8 95 95 S 5 7 30 1016 10 16.09344 0 0
1:55 am 01:55 Clear 65 18.2 64 17.7 97 97 S 5 7 30 1016 10 16.09344 0 0
2:15 am 02:15 Clear 65 18.3 64 17.7 96 96 SSE 6 9 30 1016 10 16.09344 0 0
2:35 am 02:35 Clear 65 18.5 64 17.9 96 96 S 7 11 30 1016 10 16.09344 0 0
2:55 am 02:55 Clear 65 18.1 64 17.6 97 97 SSE 5 7 30 1016 10 16.09344 0 0
3:15 am 03:15 Clear 64 18 64 17.6 98 98 S 6 9 30 1016 10 16.09344 0 0
3:35 am 03:35 Clear 64 17.9 64 17.5 98 98 S 3 6 30 1016 10 16.09344 0 0
3:55 am 03:55 Clear 64 18 64 17.5 97 97 S 6 9 30 1016 10 16.09344 0 0
4:15 am 04:15 Clear 64 17.9 64 17.6 98 98 S 3 6 30 1016 10 16.09344 0 0
4:35 am 04:35 Clear 64 17.7 64 17.5 99 99 S 3 6 30 1016 10 16.09344 0 0
4:55 am 04:55 Clear 64 17.6 64 17.5 99 99 S 5 7 29.97 1015 10 16.09344 0 0
5:15 am 05:15 Clear 64 17.6 64 17.5 99 99 S 5 7 29.97 1015 10 16.09344 0 0
5:35 am 05:35 Clear 64 17.5 64 17.5 100 100 SSE 5 7 29.97 1015 10 16.09344 0 0
5:55 am 05:55 Clear 63 17.2 63 17.2 100 100 SSE 5 7 29.97 1015 10 16.09344 0 0
6:15 am 06:15 Clear 64 17.5 64 17.5 100 100 SSE 6 9 29.97 1015 10 16.09344 0 0
6:35 am 06:35 Clear 64 17.9 64 17.6 98 98 SSE 7 11 29.97 1015 10 16.09344 0 0
6:55 am 06:55 Clear 64 17.8 64 17.7 99 99 SSE 8 13 29.97 1015 10 16.09344 0 0
7:15 am 07:15 Clear 64 18 64 17.8 99 99 SSE 7 11 29.97 1015 10 16.09344 0 0
7:35 am 07:35 Sunny 64 17.8 64 17.7 99 99 SSE 7 11 29.97 1015 10 16.09344 0 0
7:55 am 07:55 Sunny 64 18 64 18 100 100 SSE 7 11 29.97 1015 10 16.09344 0 0
8:15 am 08:15 Sunny 65 18.6 65 18.3 98 98 S 9 15 29.97 1015 10 16.09344 0 0
8:55 am 08:55 Sunny 68 19.8 66 18.9 95 95 S 10 17 29.94 1014 10 16.09344 0 0
9:15 am 09:15 Partly Cloudy 68 20.1 66 19 93 93 S 13 20 29.94 1014 10 16.09344 0 0
9:35 am 09:35 Partly Cloudy 70 20.9 67 19.5 92 92 S 14 22 29.94 1014 10 16.09344 0 0
9:55 am 09:55 Mostly Cloudy 72 22.2 68 19.9 87 87 SSW 15 24 29.94 1014 10 16.09344 0 0
10:15 am 10:15 Mostly Cloudy 73 23 68 20 83 83 S 13 20 29.94 1014 10 16.09344 0 0
10:35 am 10:35 Partly Cloudy 74 23.6 68 20 80 80 S 17 28 29.91 1013 10 16.09344 0 0
10:55 am 10:55 Partly Cloudy 76 24.4 68 20.1 77 77 S 16 26 29.91 1013 10 16.09344 0 0
11:15 am 11:15 Partly Cloudy 77 24.8 68 20.1 75 75 S 10 17 29.91 1013 10 16.09344 0 0
11:35 am 11:35 Partly Cloudy 78 25.4 68 20 72 72 SSW 16 26 29.91 1013 10 16.09344 0 0
11:55 am 11:55 Partly Cloudy 79 26.1 68 20.1 70 70 S 13 20 29.91 1013 10 16.09344 0 0
12:15 pm 12:15 Sunny 80 26.6 68 19.9 67 67 S 17 28 29.88 1012 10 16.09344 0 0
12:35 pm 12:35 Sunny 81 27.3 68 20 64 64 S 15 24 29.85 1011 10 16.09344 0 0
12:55 pm 12:55 Sunny 81 27.4 67 19.6 62 62 S 18 30 29.85 1011 10 16.09344 0 0
1:15 pm 13:15 Sunny 82 28 67 19.5 60 60 S 16 26 29.85 1011 10 16.09344 0 0
1:35 pm 13:35 Sunny 82 28 67 19.3 59 59 SSE 17 28 29.83 1010 10 16.09344 0 0
1:55 pm 13:55 Sunny 84 28.7 67 19.4 57 57 S 20 31 29.83 1010 10 16.09344 0 0
2:15 pm 14:15 Partly Cloudy 84 29.1 67 19.5 56 56 S 13 20 29.83 1010 10 16.09344 0 0
2:35 pm 14:35 Partly Cloudy 85 29.4 67 19.4 55 55 SSW 20 31 29.83 1010 10 16.09344 0 0
2:55 pm 14:55 Partly Cloudy 85 29.5 67 19.4 55 55 S 15 24 29.83 1010 10 16.09344 0 0
3:15 pm 15:15 Partly Cloudy 85 29.7 66 19.1 53 53 S 14 22 29.8 1009 10 16.09344 0 0
3:35 pm 15:35 Partly Cloudy 86 30 66 19.1 52 52 S 14 22 29.77 1008 10 16.09344 0 0
3:55 pm 15:55 Partly Cloudy 86 30 66 19 52 52 S 13 20 29.77 1008 10 16.09344 0 0
4:15 pm 16:15 Partly Cloudy 86 29.8 66 19.1 53 53 SSE 13 20 29.8 1009 10 16.09344 0 0
4:35 pm 16:35 Partly Cloudy 85 29.7 66 19 53 53 S 13 20 29.8 1009 10 16.09344 0 0
4:55 pm 16:55 Partly Cloudy 87 30.3 67 19.2 51 51 S 13 20 29.74 1007 10 16.09344 0 0
5:15 pm 17:15 Sunny 86 29.9 66 18.7 51 51 S 17 28 29.8 1009 10 16.09344 0 0
5:35 pm 17:35 Sunny 86 30 66 19 52 52 S 16 26 29.74 1007 10 16.09344 0 0
5:55 pm 17:55 Sunny 86 30.1 66 18.9 51 51 S 13 20 29.77 1008 10 16.09344 0 0
6:15 pm 18:15 Sunny 85 29.5 66 18.9 53 53 S 16 26 29.77 1008 10 16.09344 0 0
6:35 pm 18:35 Sunny 85 29.4 66 18.7 53 53 SSE 16 26 29.8 1009 10 16.09344 0 0
6:55 pm 18:55 Sunny 84 28.9 66 18.7 54 54 S 13 20 29.8 1009 10 16.09344 0 0
7:15 pm 19:15 Sunny 83 28.2 66 18.7 56 56 S 10 17 29.8 1009 10 16.09344 0 0
7:35 pm 19:35 Sunny 81 27.2 66 19 61 61 SSE 8 13 29.8 1009 10 16.09344 0 0
7:55 pm 19:55 Clear 78 25.4 66 19.1 68 68 SSE 9 15 29.83 1010 10 16.09344 0 0
8:15 pm 20:15 Clear 77 24.8 66 19 70 70 SSE 9 15 29.83 1010 10 16.09344 0 0
8:35 pm 20:35 Clear 76 24.2 66 18.9 72 72 SSE 9 15 29.83 1010 10 16.09344 0 0
8:55 pm 20:55 Clear 74 23.6 66 18.8 75 75 SSE 8 13 29.83 1010 10 16.09344 0 0
9:15 pm 21:15 Clear 73 22.8 66 18.8 78 78 SSE 8 13 29.83 1010 10 16.09344 0 0
9:35 pm 21:35 Clear 73 23 66 19 78 78 SSE 8 13 29.83 1010 10 16.09344 0 0
9:55 pm 21:55 Clear 73 23 66 19 78 78 SSE 10 17 29.83 1010 10 16.09344 0 0
10:15 pm 22:15 Clear 74 23.5 66 19 76 76 S 12 19 29.83 1010 10 16.09344 0 0
10:35 pm 22:35 Clear 73 23 66 19 78 78 S 9 15 29.83 1010 10 16.09344 0 0
10:55 pm 22:55 Clear 73 22.6 66 19 80 80 S 7 11 29.83 1010 10 16.09344 0 0
11:15 pm 23:15 Clear 72 22.2 66 19.1 83 83 S 6 9 29.85 1011 10 16.09344 0 0
11:35 pm 23:35 Clear 71 21.7 67 19.2 86 86 S 6 9 29.85 1011 10 16.09344 0 0
11:55 pm 23:55 Clear 71 21.8 67 19.5 87 87 S 7 11 29.85 1011 10 16.09344 0 0

Powered by AerisWeather